User: anonymous   Login
Location: Katowice
(50.2611°N, 19.0242°E)
Time: 16:29:26
(UTC+02:00)
Language:

Tiros 1 despin weight - Orbit

View from above orbital plane
View from above orbital plane
View from above satellite
View from above satellite

Ground track
Ground track

The orbit data is extracted from the following two-line orbital elements,

1   115U 60002D   19197.90149030 -.00000137 +00000-0 +10756-4 0  9993
2   115 048.1672 092.4165 0034483 206.5257 153.3892 14.83454318141843
Epoch (UTC): 16 July 2019 21:38:08
Eccentricity: 0.0034483
inclination: 48.1672°
perigee height: 594 km
apogee height: 642 km
right ascension of ascending node: 92.4165°
argument of perigee: 206.5257°
revolutions per day: 14.83454318
mean anomaly at epoch: 153.3892°
orbit number at epoch: 14184

The dashed part of the orbit path shows where the satellite is in the earth's shadow,  

DLR